This is the latest recevied weather packets stored in our database for station/object CE7LGA-10. If no packets are shown the sender has not sent any weather packets the latest 10 day(s).
| Time | Temp. | Humidity | Pressure | Rain* | Wind** | Luminosity | Snow |
|---|---|---|---|---|---|---|---|
| 1787990003 | 15° C | 66% | 997.2 hPa | - | - | - | - |
| 1787989103 | 15° C | 66% | 997.3 hPa | - | - | - | - |
| 1787988203 | 15.56° C | 66% | 997.4 hPa | - | - | - | - |
| 1787987303 | 15.56° C | 66% | 997.4 hPa | - | - | - | - |
| 1787986402 | 15.56° C | 66% | 997.5 hPa | - | - | - | - |
| 1787985502 | 15.56° C | 66% | 997.3 hPa | - | - | - | - |
| 1787984602 | 15.56° C | 65% | 997.1 hPa | - | - | - | - |
| 1787983702 | 15.56° C | 65% | 996.9 hPa | - | - | - | - |
| 1787982802 | 15.56° C | 65% | 996.7 hPa | - | - | - | - |
| 1787981902 | 16.11° C | 65% | 996.8 hPa | - | - | - | - |
| 1787981002 | 16.11° C | 65% | 996.5 hPa | - | - | - | - |
| 1787980102 | 16.11° C | 65% | 996.4 hPa | - | - | - | - |
| 1787979201 | 16.67° C | 65% | 996.4 hPa | - | - | - | - |
| 1787978304 | 16.67° C | 64% | 996.3 hPa | - | - | - | - |
| 1787977404 | 16.67° C | 64% | 996.3 hPa | - | - | - | - |
| 1787976504 | 17.22° C | 63% | 996.5 hPa | - | - | - | - |
| 1787975604 | 17.78° C | 63% | 996.6 hPa | - | - | - | - |
| 1787974704 | 18.33° C | 62% | 996.6 hPa | - | - | - | - |
| 1787973804 | 20.56° C | 62% | 996.9 hPa | - | - | - | - |
| 1787972904 | 20° C | 63% | 996.9 hPa | - | - | - | - |
| 1787972004 | 18.89° C | 64% | 996.9 hPa | - | - | - | - |
| 1787971104 | 16.11° C | 65% | 997.1 hPa | - | - | - | - |
| 1787970204 | 15.56° C | 68% | 997.7 hPa | - | - | - | - |
| 1787969303 | 16.67° C | 66% | 997.2 hPa | - | - | - | - |
| 1787968403 | 16.67° C | 67% | 996.8 hPa | - | - | - | - |
* Rain since midnight (hover to see other rain measurements)
** Current wind speed in m/s (hover to see current wind gust speed)